This is the latest recevied weather packets stored in our database for station/object OE6ACM-14. If no packets are shown the sender has not sent any weather packets the latest 10 day(s).
| Time | Temp. | Humidity | Pressure | Rain* | Wind** | Luminosity | Snow |
|---|---|---|---|---|---|---|---|
| 1787811976 | 17.78° C | 83% | 929.9 hPa | - | - | - | - |
| 1787811676 | 17.22° C | 85% | 929.9 hPa | - | - | - | - |
| 1787811376 | 16.67° C | 87% | 930 hPa | - | - | - | - |
| 1787811077 | 16.11° C | 88% | 930.1 hPa | - | - | - | - |
| 1787810776 | 15.56° C | 88% | 930 hPa | - | - | - | - |
| 1787810476 | 15° C | 88% | 930.1 hPa | - | - | - | - |
| 1787810176 | 14.44° C | 88% | 930.1 hPa | - | - | - | - |
| 1787809876 | 14.44° C | 88% | 930.1 hPa | - | - | - | - |
| 1787809576 | 14.44° C | 89% | 930 hPa | - | - | - | - |
| 1787809276 | 14.44° C | 89% | 930.1 hPa | - | - | - | - |
| 1787808976 | 13.89° C | 89% | 930.2 hPa | - | - | - | - |
| 1787808676 | 13.33° C | 89% | 930.2 hPa | - | - | - | - |
| 1787808376 | 13.33° C | 88% | 930.2 hPa | - | - | - | - |
| 1787808076 | 13.33° C | 88% | 930.2 hPa | - | - | - | - |
| 1787807776 | 13.89° C | 89% | 930.3 hPa | - | - | - | - |
| 1787807476 | 13.33° C | 89% | 930.4 hPa | - | - | - | - |
| 1787807176 | 12.78° C | 88% | 930.5 hPa | - | - | - | - |
| 1787806876 | 13.33° C | 88% | 930.3 hPa | - | - | - | - |
| 1787806576 | 13.89° C | 89% | 930.1 hPa | - | - | - | - |
| 1787806276 | 13.89° C | 89% | 930.1 hPa | - | - | - | - |
| 1787805976 | 13.33° C | 89% | 930.1 hPa | - | - | - | - |
| 1787805676 | 13.33° C | 88% | 930 hPa | - | - | - | - |
| 1787805376 | 13.33° C | 88% | 929.9 hPa | - | - | - | - |
| 1787805076 | 13.89° C | 89% | 930.1 hPa | - | - | - | - |
| 1787804627 | 13.33° C | 88% | 929.9 hPa | - | - | - | - |
* Rain since midnight (hover to see other rain measurements)
** Current wind speed in m/s (hover to see current wind gust speed)